17.05.2024;04:00;3
17.05.2024;03:00;3
17.05.2024;02:00;3
17.05.2024;01:00;4
17.05.2024;00:00;4
16.05.2024;23:00;4
16.05.2024;22:00;4
16.05.2024;21:00;5
16.05.2024;20:00;6
16.05.2024;19:00;6
16.05.2024;18:00;7
16.05.2024;17:00;7
16.05.2024;16:00;8
16.05.2024;15:00;8
16.05.2024;14:00;9
16.05.2024;13:00;9
16.05.2024;12:00;10
16.05.2024;11:00;10
16.05.2024;10:00;10
16.05.2024;09:00;10
16.05.2024;08:00;10
16.05.2024;07:00;11
16.05.2024;06:00;11
16.05.2024;05:00;11
16.05.2024;04:00;11
16.05.2024;03:00;11
16.05.2024;02:00;11
16.05.2024;01:00;11
16.05.2024;00:00;11
15.05.2024;23:00;11
15.05.2024;22:00;11
15.05.2024;21:00;10
15.05.2024;20:00;10
15.05.2024;19:00;9
15.05.2024;18:00;9
15.05.2024;17:00;9
15.05.2024;16:00;9
15.05.2024;15:00;9
15.05.2024;14:00;9
15.05.2024;13:00;9
15.05.2024;12:00;8
15.05.2024;11:00;8
15.05.2024;10:00;8
15.05.2024;09:00;8
15.05.2024;08:00;8
15.05.2024;07:00;8
15.05.2024;06:00;8
15.05.2024;05:00;8
